Flag Weather past 2 weeks in Vincennes, Indiana, U.S.A.

Now
49 °F

Clear.


Feels Like: 45 °F
Forecast: 48 / 57 °F
Wind: 10 mph from South

Location: Lawrenceville-Vincennes International Airport

Current Time: Nov 23, 2014 at 2:44:32 AM

Latest Report: Nov 23, 2014 at 1:53 AM


Visibility: 10 mi

Pressure: 29.95 "Hg

Humidity: 66%

Dew point: 38 °F

Location of VincennesLocation

Historic Weather in Vincennes — Graph

°F

Vincennes temperature yesterday

Maximum temperature yesterday: 62 °F (at 3:53 PM)
Minimum temperature yesterday: 36 °F (at 1:53 AM)
Average temperature yesterday: 50 °F

Past Weeks' High & Low Weather Summary

 TemperatureHumidityPressure
High66 °F (Nov 10, 2:53 PM)100% (Nov 16, 3:53 PM)30.53 "Hg (Nov 16, 3:53 PM)
Low13 °F (Nov 18, 7:53 AM)35% (Nov 21, 3:53 PM)29.67 "Hg (Nov 10, 5:53 PM)
Average34 °F70%30.17 "Hg
* Reported Nov 8 1:53 AM — Nov 23 1:53 AM, Vincennes, Weather by CustomWeather, © 2014

Note: Actual official high and low records may vary slightly from our data, if they occured in-between our weather recording intervals... More about our weather records

Advertising

Vincennes weather history for previous 24 hours

 ConditionsComfort  
Time TempWeatherWind HumidityBarometerVisibility
1:53 AM
Nov 23
49 °FClear.10 mph66%29.95 "Hg10 mi
12:53 AM50 °FMostly cloudy.9 mph66%29.97 "Hg10 mi
11:53 PM
Nov 22
51 °FOvercast.8 mph66%29.98 "Hg10 mi
10:53 PM51 °FOvercast.8 mph69%29.99 "Hg10 mi
9:53 PM51 °FMostly cloudy.7 mph69%30.00 "Hg10 mi
8:53 PM52 °FOvercast.8 mph69%30.02 "Hg10 mi
7:53 PM53 °FOvercast.7 mph69%30.02 "Hg10 mi
6:53 PM56 °FMostly cloudy.8 mph62%30.03 "Hg10 mi
5:53 PM57 °FPassing clouds.15 mph60%30.02 "Hg10 mi
4:53 PM59 °FMostly cloudy.12 mph56%30.04 "Hg10 mi
3:53 PM62 °FPassing clouds.22 mph50%30.05 "Hg10 mi
2:53 PM61 °FOvercast.22 mph52%30.06 "Hg10 mi
1:53 PM61 °FOvercast.18 mph54%30.09 "Hg10 mi
12:53 PM59 °FOvercast.25 mph58%30.13 "Hg10 mi
11:53 AM58 °FMostly cloudy.20 mph58%30.16 "Hg10 mi
10:53 AM57 °FOvercast.21 mph60%30.18 "Hg10 mi
9:53 AM52 °FOvercast.15 mph66%30.20 "Hg10 mi
8:53 AM46 °FOvercast.10 mph71%30.20 "Hg10 mi
7:53 AM42 °FPartly sunny.9 mph73%30.22 "Hg9 mi
6:53 AM42 °FOvercast.12 mph71%30.22 "Hg8 mi
5:53 AM41 °FOvercast.12 mph70%30.23 "Hg9 mi
4:53 AM39 °FOvercast.10 mph76%30.23 "Hg10 mi
3:53 AM38 °FMostly cloudy.9 mph76%30.25 "Hg10 mi
2:53 AM37 °FOvercast.5 mph82%30.27 "Hg9 mi
Weather by CustomWeather, © 2014

See weather overviewHow to use our weather pages